Regional Weather Roundup
Issued by NWS Kansas City/Pleasant Hill, MO

Home | Current Version | Previous Version | Graphics & Text | Print | Product List | Glossary Off
Versions: 1 2 3 4 5 6 7 8 9 10 11 12 13 14 15 16 17 18 19 20 21 22 23 24 25 26 27

000
ASUS43 KEAX 072210
RWREAX

WEATHER ROUNDUP FOR EASTERN KANSAS AND NORTHWEST MISSOURI
NATIONAL WEATHER SERVICE KANSAS CITY/PLEASANT HILL MO
400 PM CST WED DEC 07 2016

KSZ040-057-103>105-MOZ028-029-037-043-072300-
...KANSAS CITY METROPOLITAN AREA...

CITY           SKY/WX    TMP DP  RH WIND       PRES   REMARKS
K.C. INTL      CLOUDY    26  13  57 NW10      30.33R WCI  16
K.C. DOWNTOWN  CLOUDY    28  18  66 W9        30.34R WCI  19
LEES SUMMIT    CLOUDY    26  21  81 NW8       30.33R WCI  18
OLATHE - IXD   LGT SNOW  24  20  84 NW9       30.34R FOG     WCI  14
OLATHE - OJC   LGT SNOW  24  20  84 NW8       30.33R FOG     WCI  15
LAWRENCE       PTCLDY    27  17  66 NW10      30.36R WCI  17

$$

MOZ001>008-011>017-020>025-030>033-038>040-044>046-053-054-072300-
...NORTHERN AND CENTRAL MISSOURI...

CITY           SKY/WX    TMP DP  RH WIND       PRES   REMARKS
ST. JOSEPH     CLOUDY    26  11  52 NW12      30.35R WCI  16
MOSBY          PTCLDY    28  14  54 NW9       30.33S WCI  20
WARRENSBURG    LGT SNOW  28  27  93 NW5       30.33R WCI  23
WHITEMAN AFB   LGT SNOW  27  27 100 NW10      30.31R FOG     WCI  17
CLINTON        LGT RAIN  30  25  80 N10       30.32R WCI  21
SEDALIA        LGT SNOW  28  24  85 NW9       30.32R FOG     WCI  19
WARSAW         NOT AVBL
CHILLICOTHE      N/A     28  12  51 W8        30.32R WCI  20
KIRKSVILLE     MOCLDY    29  13  51 W12       30.27R WCI  19

$$

MOZ041-047>049-056>058-063>065-088>090-097-072300-
...EASTERN AND SOUTHERN MISSOURI...

CITY           SKY/WX    TMP DP  RH WIND       PRES   REMARKS
ST. LOUIS INTL CLOUDY    37  16  42 W7        30.23R WCI  32
SPIRIT OF STL  CLOUDY    36  19  50 NW6       30.24R WCI  31
COLUMBIA       CLOUDY    31  22  69 W13       30.27R WCI  21
JEFFERSON CITY CLOUDY    33  21  61 W7        30.29R WCI  27
ROLLA          CLOUDY    34  18  52 NW8       30.22R WCI  27
OSAGE BEACH    CLOUDY    33  21  61 N6        30.29R WCI  28
SPRINGFIELD    CLOUDY    35  16  45 N10       30.24R WCI  27
BRANSON        CLOUDY    34  19  55 CALM      30.22R
JOPLIN         CLOUDY    33  19  56 N13G20    30.28R WCI  24
WEST PLAINS    CLOUDY    37  16  42 N3        30.22R

$$

IAZ060-094-KSZ022-034>040-054-083-096-NEZ052-066-093-072300-
...KANSAS...SOUTHEAST NEBRASKA AND IOWA...

CITY           SKY/WX    TMP DP  RH WIND       PRES   REMARKS
TOPEKA         PTCLDY    28  18  66 NW9       30.36R WCI  19
MANHATTAN      CLEAR     28  15  58 VRB5      30.37R WCI  23
EMPORIA        CLOUDY    26  22  84 N10       30.34R WCI  16
CHANUTE        LGT SNOW  29  24  82 N13G24    30.32R WCI  19
WICHITA        FLURRIES  29  21  72 N17       30.33R WCI  17
OMAHA          MOCLDY    24   7  48 NW20      30.34R WCI  10
LINCOLN        CLEAR     26   5  40 NW16      30.37R WCI  14
FALLS CITY     PTCLDY    26   8  46 NW17G23   30.35R WCI  13
LAMONI         CLOUDY    23  10  57 NW20      30.28R WCI   8
DES MOINES     CLOUDY    25   9  50 W16       30.26R WCI  12

$$





USA.gov is the U.S. government's official web portal to all federal, state and local government web resources and services.